Weather History for Livingston, MT

Change the Weather History Date:

Wednesday, March 21, 2012

  Actual Average Record
Temperature  
Mean Temperature 48 °F 37 °F  
Max Temperature 57 °F 49 °F 68 °F (1960)
Min Temperature 39 °F 25 °F -3 °F (2002)
Degree Days  
Heating Degree Days 17 28  
Month to date heating degree days 640  
Since 1 July heating degree days 5988  
Cooling Degree Days 0 0  
Month to date cooling degree days 0  
Year to date cooling degree days 0  
Moisture  
Dew Point 27 °F    
Average Humidity 47    
Maximum Humidity 60    
Minimum Humidity 33    
Precipitation  
Precipitation 0.00 in 0.03 in 0.42 in (1966)
Month to date precipitation 0.49  
Year to date precipitation 1.48  
Sea Level Pressure  
Sea Level Pressure 29.87 in    
Wind  
Wind Speed 34 mph (SW)    
Max Wind Speed 41 mph    
Max Gust Speed 60 mph    
Visibility 10 miles    
Events      
T = Trace of Precipitation, MM = Missing Value Source: NWS Daily Summary

Daily Weather History Graph

Daily Weather History Graph

Search for Another Location

Airport:

Trip Planner

Search our weather history database for the weather conditions in past years. The results will help you decide how hot, cold, wet, or windy it might be!

Date:

Astronomy

Mar. 21, 2012 Rise Set
Actual Time 7:21 AM MDT 7:36 PM MDT
Civil Twilight 6:52 AM MDT 8:06 PM MDT
Nautical Twilight 6:17 AM MDT 8:41 PM MDT
Astronomical Twilight 5:41 AM MDT 9:17 PM MDT
Moon 6:35 AM MDT (3/21) 7:07 PM MDT (3/21)
Length of Visible Light 13h 13m
Length of Day
12h 14m
Waning Crescent, 1% of the Moon is Illuminated
Mar 21
Waning Crescent
Mar 22
New
Mar 30
First Quarter
Apr 6
Full
Apr 13
Last Quarter

Hourly Weather History & Observations

Time (MDT) Temp. Windchill Dew Point Humidity Pressure Visibility Wind Dir Wind Speed Gust Speed Precip Events Conditions
12:53 AM 39.9 °F 27.3 °F 21.9 °F 49% 29.84 in 10.0 mi SSW 36.8 mph 55.2 mph N/A   Clear
1:53 AM 39.0 °F 26.2 °F 23.0 °F 53% 29.83 in 10.0 mi SSW 35.7 mph 59.8 mph N/A   Clear
2:53 AM 39.9 °F 27.1 °F 23.0 °F 51% 29.84 in 10.0 mi SSW 38.0 mph 57.5 mph N/A   Clear
3:53 AM 39.0 °F 26.4 °F 24.1 °F 55% 29.85 in 10.0 mi SSW 34.5 mph 48.3 mph N/A   Clear
4:53 AM 39.0 °F 27.2 °F 25.0 °F 57% 29.87 in 10.0 mi SSW 29.9 mph 49.5 mph N/A   Clear
5:53 AM 39.0 °F 26.8 °F 25.0 °F 57% 29.88 in 10.0 mi SW 32.2 mph 43.7 mph N/A   Clear
6:53 AM 39.0 °F 27.2 °F 26.1 °F 60% 29.90 in 10.0 mi SW 29.9 mph 39.1 mph N/A   Clear
7:53 AM 39.9 °F 26.7 °F 26.1 °F 58% 29.90 in 10.0 mi SSW 41.4 mph 49.5 mph N/A   Clear
8:53 AM 42.1 °F 30.1 °F 27.0 °F 55% 29.89 in 10.0 mi SW 38.0 mph 54.1 mph N/A   Clear
9:53 AM 44.1 °F 33.3 °F 28.0 °F 53% 29.88 in 10.0 mi SW 34.5 mph 52.9 mph N/A   Clear
10:53 AM 46.9 °F - 28.9 °F 50% 29.87 in 10.0 mi SW 39.1 mph 51.8 mph N/A   Clear
11:53 AM 50.0 °F - 30.0 °F 46% 29.86 in 10.0 mi SW 29.9 mph 47.2 mph N/A   Clear
12:53 PM 54.0 °F - 30.0 °F 40% 29.84 in 10.0 mi SW 39.1 mph 52.9 mph N/A   Clear
1:53 PM 55.9 °F - 28.9 °F 36% 29.86 in 10.0 mi SW 35.7 mph 47.2 mph N/A   Clear
2:53 PM 57.9 °F - 28.9 °F 33% 29.83 in 10.0 mi SW 38.0 mph 46.0 mph N/A   Clear
3:53 PM 57.0 °F - 28.9 °F 34% 29.84 in 10.0 mi SW 34.5 mph 49.5 mph N/A   Clear
4:53 PM 54.0 °F - 28.9 °F 38% 29.86 in 10.0 mi SW 28.8 mph 43.7 mph N/A   Clear
5:53 PM 54.0 °F - 28.0 °F 37% 29.87 in 10.0 mi SW 31.1 mph 42.6 mph N/A   Clear
6:53 PM 52.0 °F - 28.0 °F 40% 29.88 in 10.0 mi SSW 36.8 mph 43.7 mph N/A   Clear
7:53 PM 51.1 °F - 28.0 °F 41% 29.90 in 10.0 mi SW 29.9 mph 40.3 mph N/A   Clear
8:53 PM 48.9 °F - 28.9 °F 46% 29.90 in 10.0 mi WSW 20.7 mph 31.1 mph N/A   Clear
9:53 PM 50.0 °F - 28.0 °F 43% 29.90 in 10.0 mi SW 27.6 mph 38.0 mph N/A   Clear
10:53 PM 48.9 °F - 28.0 °F 44% 29.89 in 10.0 mi SSW 25.3 mph 33.4 mph N/A   Clear
11:53 PM 48.0 °F - 27.0 °F 44% 29.88 in 10.0 mi SW 16.1 mph 29.9 mph N/A   Clear